Location: Lecco
(45.8566°N, 9.3977°E)
Time: 08:02:55
(UTC+02:00)

Altair - Pass Details

Date: 17 August 2020
Orbit: 1501 x 1682 km, 47.2° (Epoch: 25 September)

Event Time Altitude Azimuth Distance (km) Brightness Sun altitude
Rises 23:38:16 0° 184° (S) 4,881 - -26.3°
Reaches altitude 10° 23:42:39 10° 168° (SSE) 3,871 - -26.6°
Maximum altitude 23:48:57 19° 127° (SE) 3,154 - -27.1°
Exits shadow 23:54:04 12° 92° (E) 3,599 9.2 -27.5°
Drops below altitude 10° 23:55:07 10° 87° (E) 3,791 9.3 -27.6°
Sets 23:59:17 0° 71° (ENE) 4,746 10.0 -27.9°
